Location: Ç?ral? Körfezi
(36.3984°N, 30.4829°E)
Time: 17:58:44
(UTC+00:00)

Cosmos 2322 Rocket - Pass Details

Date: 04 August 2024
Orbit: 831 x 851 km, 71.0° (Epoch: 19 September)

Event Time Altitude Azimuth Distance (km) Brightness Sun altitude
Exits shadow 22:50:38 29° 58° (ENE) 1,505 3.8 -35.6°
Drops below altitude 10° 22:53:42 10° 37° (NE) 2,473 5.3 -35.4°
Sets 22:56:17 0° 30° (NNE) 3,414 6.3 -35.3°
